Location: Newark
(41.8922°N, 9.0050°E)
Time: 21:01:59
(UTC+00:00)

ISS - Pass Details

Date: 01 February 2020
Orbit: 416 x 422 km, 51.6° (Epoch: 20 February)

Event Time Altitude Azimuth Distance (km) Brightness Sun altitude
Rises 19:06:35 0° 307° (NW) 2,377 0.9 -27.8°
Reaches altitude 10° 19:08:46 10° 315° (NW) 1,509 -0.4 -28.2°
Enters shadow 19:09:11 13° 317° (NW) 1,349 -0.7 -28.2°
